status,avgMeasuredTime,avgSpeed,extID,medianMeasuredTime,TIMESTAMP,vehicleCount,_id,REPORT_ID
OK,43,55,856,43,2014-08-01T07:55:00,10,20746580,201561
OK,50,47,856,50,2014-08-01T08:00:00,7,20746911,201561
OK,51,46,856,51,2014-08-01T08:05:00,13,20747360,201561
OK,46,51,856,46,2014-08-01T08:10:00,13,20747733,201561
OK,41,58,856,41,2014-08-01T08:15:00,10,20748182,201561
OK,40,59,856,40,2014-08-01T08:20:00,12,20748631,201561
OK,41,58,856,41,2014-08-01T08:25:00,6,20749080,201561
OK,47,50,856,47,2014-08-01T08:30:00,10,20749529,201561
OK,46,51,856,46,2014-08-01T08:35:00,11,20749978,201561
OK,46,51,856,46,2014-08-01T08:40:00,3,20750427,201561
OK,43,55,856,43,2014-08-01T08:45:00,4,20750876,201561
OK,63,37,856,63,2014-08-01T08:50:00,10,20751325,201561
OK,63,37,856,63,2014-08-01T08:55:00,12,20751774,201561
OK,44,54,856,44,2014-08-01T09:00:00,5,20752223,201561
OK,40,59,856,40,2014-08-01T09:05:00,4,20752672,201561
OK,42,56,856,42,2014-08-01T09:10:00,8,20753121,201561
OK,60,39,856,60,2014-08-01T09:15:00,11,20753570,201561
OK,55,43,856,55,2014-08-01T09:20:00,13,20754019,201561
OK,47,50,856,47,2014-08-01T09:25:00,17,20754468,201561
OK,47,50,856,47,2014-08-01T09:30:00,10,20754917,201561
OK,62,38,856,62,2014-08-01T09:35:00,4,20755366,201561
OK,46,51,856,46,2014-08-01T09:40:00,13,20755815,201561
OK,42,56,856,42,2014-08-01T09:45:00,12,20756264,201561
OK,42,56,856,42,2014-08-01T09:50:00,6,20756713,201561
OK,44,54,856,44,2014-08-01T09:55:00,5,20757162,201561
OK,45,53,856,45,2014-08-01T10:00:00,3,20757611,201561
OK,42,56,856,42,2014-08-01T10:05:00,7,20758060,201561
OK,46,51,856,46,2014-08-01T10:10:00,6,20758509,201561
OK,50,47,856,50,2014-08-01T10:15:00,7,20758958,201561
OK,54,44,856,54,2014-08-01T10:20:00,9,20759407,201561
OK,52,45,856,52,2014-08-01T10:25:00,9,20759856,201561
OK,42,56,856,42,2014-08-01T10:30:00,8,20760305,201561
OK,47,50,856,47,2014-08-01T10:35:00,12,20760754,201561
OK,46,51,856,46,2014-08-01T10:40:00,14,20761203,201561
OK,45,53,856,45,2014-08-01T10:45:00,8,20761652,201561
OK,65,36,856,65,2014-08-01T10:50:00,3,20762101,201561
OK,51,46,856,51,2014-08-01T10:55:00,6,20762550,201561
OK,43,55,856,43,2014-08-01T11:00:00,4,20762999,201561
OK,42,56,856,42,2014-08-01T11:05:00,5,20763448,201561
OK,42,56,856,42,2014-08-01T11:10:00,6,20763897,201561
OK,44,54,856,44,2014-08-01T11:15:00,8,20764345,201561
OK,45,53,856,45,2014-08-01T11:20:00,12,20764794,201561
OK,46,51,856,46,2014-08-01T11:25:00,10,20765243,201561
OK,41,58,856,41,2014-08-01T11:30:00,5,20765692,201561
OK,42,56,856,42,2014-08-01T11:35:00,11,20766141,201561
OK,45,53,856,45,2014-08-01T11:40:00,7,20766590,201561
OK,46,51,856,46,2014-08-01T11:45:00,6,20767039,201561
OK,52,45,856,52,2014-08-01T11:50:00,9,20767488,201561
OK,48,49,856,48,2014-08-01T11:55:00,8,20767937,201561
OK,44,54,856,44,2014-08-01T12:00:00,5,20768386,201561
OK,65,36,856,65,2014-08-01T12:05:00,10,20768835,201561
OK,65,36,856,65,2014-08-01T12:10:00,9,20769284,201561
OK,44,54,856,44,2014-08-01T12:15:00,2,20769733,201561
OK,45,53,856,45,2014-08-01T12:20:00,11,20770182,201561
OK,45,53,856,45,2014-08-01T12:25:00,14,20770631,201561
OK,43,55,856,43,2014-08-01T12:30:00,7,20771080,201561
OK,42,56,856,42,2014-08-01T12:35:00,4,20771529,201561
OK,43,55,856,43,2014-08-01T12:40:00,3,20771978,201561
OK,44,54,856,44,2014-08-01T12:45:00,4,20772427,201561
OK,44,54,856,44,2014-08-01T12:50:00,2,20772876,201561
OK,54,44,856,54,2014-08-01T12:55:00,3,20773325,201561
OK,48,49,856,48,2014-08-01T13:00:00,4,20773774,201561
OK,42,56,856,42,2014-08-01T13:05:00,2,20774223,201561
OK,66,36,856,66,2014-08-01T13:10:00,8,20774672,201561
OK,65,36,856,65,2014-08-01T13:15:00,7,20775121,201561
OK,45,53,856,45,2014-08-01T13:20:00,5,20775570,201561
OK,44,54,856,44,2014-08-01T13:25:00,7,20776019,201561
OK,45,53,856,45,2014-08-01T13:30:00,6,20776468,201561
OK,59,40,856,59,2014-08-01T13:35:00,6,20776917,201561
OK,67,35,856,67,2014-08-01T13:40:00,4,20777366,201561
OK,40,59,856,40,2014-08-01T13:45:00,4,20777815,201561
OK,40,59,856,40,2014-08-01T13:50:00,9,20778264,201561
OK,39,61,856,39,2014-08-01T13:55:00,7,20778713,201561
OK,37,64,856,37,2014-08-01T14:00:00,3,20779162,201561
OK,41,58,856,41,2014-08-01T14:05:00,3,20779611,201561
OK,41,58,856,41,2014-08-01T14:10:00,7,20780060,201561
OK,43,55,856,43,2014-08-01T14:15:00,11,20780509,201561
OK,43,55,856,43,2014-08-01T14:20:00,11,20780958,201561
OK,39,61,856,39,2014-08-01T14:25:00,10,20781407,201561
OK,39,61,856,39,2014-08-01T14:30:00,9,20781856,201561
OK,43,55,856,43,2014-08-01T14:35:00,6,20782305,201561
OK,43,55,856,43,2014-08-01T14:40:00,7,20782754,201561
OK,42,56,856,42,2014-08-01T14:45:00,10,20783203,201561
OK,38,62,856,38,2014-08-01T14:50:00,6,20783652,201561
OK,47,50,856,47,2014-08-01T14:55:00,11,20784101,201561
OK,43,55,856,43,2014-08-01T15:00:00,8,20784550,201561
OK,38,62,856,38,2014-08-01T15:05:00,2,20784999,201561
OK,39,61,856,39,2014-08-01T15:10:00,4,20785448,201561
OK,41,58,856,41,2014-08-01T15:15:00,6,20785897,201561
OK,48,49,856,48,2014-08-01T15:20:00,10,20786346,201561
OK,49,48,856,49,2014-08-01T15:25:00,10,20786795,201561
OK,49,48,856,49,2014-08-01T15:30:00,7,20787244,201561
OK,49,48,856,49,2014-08-01T15:35:00,7,20787693,201561
OK,54,44,856,54,2014-08-01T15:40:00,8,20788142,201561
OK,55,43,856,55,2014-08-01T15:45:00,6,20788591,201561
OK,54,44,856,54,2014-08-01T15:50:00,4,20789040,201561
OK,59,40,856,59,2014-08-01T15:55:00,5,20789489,201561
OK,65,36,856,65,2014-08-01T16:00:00,3,20789938,201561
OK,68,35,856,68,2014-08-01T16:05:00,1,20790387,201561
OK,37,64,856,37,2014-08-01T16:10:00,3,20790836,201561
OK,39,61,856,39,2014-08-01T16:15:00,2,20791285,201561
OK,58,41,856,58,2014-08-01T16:20:00,3,20791734,201561
OK,54,44,856,54,2014-08-01T16:25:00,4,20792183,201561
OK,45,53,856,45,2014-08-01T16:30:00,2,20792632,201561
OK,45,53,856,45,2014-08-01T16:35:00,0,20793081,201561
OK,37,64,856,37,2014-08-01T16:40:00,5,20793530,201561
OK,37,64,856,37,2014-08-01T16:45:00,5,20793979,201561
OK,52,45,856,52,2014-08-01T16:50:00,4,20794428,201561
OK,50,47,856,50,2014-08-01T16:55:00,6,20794877,201561
OK,46,51,856,46,2014-08-01T17:00:00,4,20795326,201561
OK,69,34,856,69,2014-08-01T17:05:00,1,20795775,201561
OK,63,37,856,63,2014-08-01T17:10:00,2,20796224,201561
OK,42,56,856,42,2014-08-01T17:15:00,3,20796673,201561
OK,43,55,856,43,2014-08-01T17:20:00,2,20797122,201561
OK,38,62,856,38,2014-08-01T17:25:00,2,20797571,201561
OK,36,66,856,36,2014-08-01T17:30:00,4,20798020,201561
OK,40,59,856,40,2014-08-01T17:35:00,3,20798469,201561
OK,40,59,856,40,2014-08-01T17:40:00,8,20798918,201561
OK,43,55,856,43,2014-08-01T17:45:00,8,20799367,201561
OK,40,59,856,40,2014-08-01T17:50:00,2,20799816,201561
OK,36,66,856,36,2014-08-01T17:55:00,1,20800265,201561
OK,32,74,856,32,2014-08-01T18:00:00,2,20800714,201561
OK,37,64,856,37,2014-08-01T18:05:00,3,20801163,201561
OK,41,58,856,41,2014-08-01T18:10:00,6,20801612,201561
OK,41,58,856,41,2014-08-01T18:15:00,4,20802061,201561
OK,38,62,856,38,2014-08-01T18:20:00,2,20802510,201561
OK,42,56,856,42,2014-08-01T18:25:00,2,20802959,201561
OK,39,61,856,39,2014-08-01T18:30:00,1,20803408,201561
OK,37,64,856,37,2014-08-01T18:35:00,2,20803857,201561
OK,35,68,856,35,2014-08-01T18:40:00,3,20804306,201561
OK,40,59,856,40,2014-08-01T18:45:00,2,20804755,201561
OK,38,62,856,38,2014-08-01T18:50:00,2,20805204,201561
OK,34,70,856,34,2014-08-01T18:55:00,1,20805653,201561
OK,42,56,856,42,2014-08-01T19:00:00,2,20806102,201561
OK,40,59,856,40,2014-08-01T19:05:00,3,20806551,201561
OK,40,59,856,40,2014-08-01T19:10:00,5,20807000,201561
OK,40,59,856,40,2014-08-01T19:15:00,4,20807449,201561
OK,38,62,856,38,2014-08-01T19:20:00,1,20807898,201561
OK,38,62,856,38,2014-08-01T19:25:00,0,20808347,201561
OK,38,62,856,38,2014-08-01T19:30:00,0,20808796,201561
OK,40,59,856,40,2014-08-01T19:35:00,4,20809245,201561
OK,40,59,856,40,2014-08-01T19:40:00,3,20809694,201561
OK,43,55,856,43,2014-08-01T19:45:00,5,20810143,201561
OK,43,55,856,43,2014-08-01T19:50:00,6,20810592,201561
OK,33,72,856,33,2014-08-01T19:55:00,3,20811041,201561
OK,36,66,856,36,2014-08-01T22:00:00,0,20816770,201561
OK,36,66,856,36,2014-08-01T22:05:00,0,20817219,201561
OK,31,77,856,31,2014-08-02T00:00:00,0,20823209,201561
OK,36,66,856,36,2014-08-02T00:05:00,1,20823658,201561
OK,36,66,856,36,2014-08-02T00:10:00,1,20824107,201561
OK,36,66,856,36,2014-08-02T00:15:00,0,20824556,201561
OK,45,53,856,45,2014-08-02T00:20:00,2,20825005,201561
OK,45,53,856,45,2014-08-02T00:25:00,2,20825454,201561
OK,45,53,856,45,2014-08-02T00:30:00,0,20825903,201561
OK,45,53,856,45,2014-08-02T00:35:00,0,20826352,201561
OK,45,53,856,45,2014-08-02T00:40:00,0,20826801,201561
OK,45,53,856,45,2014-08-02T00:45:00,0,20827250,201561
OK,45,53,856,45,2014-08-02T00:50:00,0,20827699,201561
OK,45,53,856,45,2014-08-02T00:55:00,0,20828148,201561
OK,45,53,856,45,2014-08-02T01:00:00,0,20828597,201561
OK,45,53,856,45,2014-08-02T01:05:00,0,20829046,201561
OK,45,53,856,45,2014-08-02T01:10:00,0,20829495,201561
OK,45,53,856,45,2014-08-02T01:15:00,0,20829944,201561
OK,45,53,856,45,2014-08-02T01:20:00,0,20830393,201561
OK,45,53,856,45,2014-08-02T01:25:00,0,20830842,201561
OK,45,53,856,45,2014-08-02T01:30:00,0,20831291,201561
OK,45,53,856,45,2014-08-02T01:35:00,0,20831740,201561
OK,45,53,856,45,2014-08-02T01:40:00,0,20832189,201561
OK,45,53,856,45,2014-08-02T01:45:00,0,20832638,201561
OK,45,53,856,45,2014-08-02T01:50:00,0,20833087,201561
OK,45,53,856,45,2014-08-02T01:55:00,0,20833536,201561
OK,45,53,856,45,2014-08-02T02:00:00,0,20833985,201561
OK,29,82,856,29,2014-08-02T02:05:00,1,20834434,201561
OK,29,82,856,29,2014-08-02T02:10:00,0,20834883,201561
OK,29,82,856,29,2014-08-02T02:15:00,0,20835332,201561
OK,29,82,856,29,2014-08-02T02:20:00,0,20835781,201561
OK,29,82,856,29,2014-08-02T02:25:00,0,20836230,201561
OK,29,82,856,29,2014-08-02T02:30:00,0,20836679,201561
OK,20,119,856,20,2014-08-02T02:35:00,1,20837128,201561
OK,20,119,856,20,2014-08-02T02:40:00,0,20837577,201561
OK,20,119,856,20,2014-08-02T02:45:00,0,20838026,201561
OK,20,119,856,20,2014-08-02T02:50:00,0,20838475,201561
OK,22,108,856,22,2014-08-02T02:55:00,0,20838924,201561
OK,22,108,856,22,2014-08-02T03:00:00,0,20839373,201561
OK,22,108,856,22,2014-08-02T03:05:00,0,20839822,201561
OK,22,108,856,22,2014-08-02T03:10:00,0,20840271,201561
OK,22,108,856,22,2014-08-02T03:15:00,0,20840720,201561
OK,22,108,856,22,2014-08-02T03:20:00,0,20841169,201561
OK,22,108,856,22,2014-08-02T03:25:00,0,20841618,201561
OK,22,108,856,22,2014-08-02T03:30:00,0,20842067,201561
OK,22,108,856,22,2014-08-02T03:35:00,0,20842516,201561
OK,22,108,856,22,2014-08-02T03:40:00,0,20842965,201561
OK,22,108,856,22,2014-08-02T03:45:00,0,20843414,201561
OK,22,108,856,22,2014-08-02T03:50:00,0,20843863,201561
OK,22,108,856,22,2014-08-02T03:55:00,0,20844312,201561
OK,41,58,856,41,2014-08-02T06:00:00,0,20851766,201561
OK,41,58,856,41,2014-08-02T06:05:00,0,20852215,201561
OK,52,45,856,52,2014-08-02T06:10:00,1,20852664,201561
OK,37,64,856,37,2014-08-02T06:15:00,1,20853113,201561
OK,37,64,856,37,2014-08-02T06:20:00,3,20853562,201561
OK,52,45,856,52,2014-08-02T06:25:00,1,20854011,201561
OK,47,50,856,47,2014-08-02T06:30:00,3,20854460,201561
OK,43,55,856,43,2014-08-02T06:35:00,5,20854909,201561
OK,46,51,856,46,2014-08-02T06:40:00,5,20855358,201561
OK,38,62,856,38,2014-08-02T06:45:00,1,20855807,201561
OK,35,68,856,35,2014-08-02T06:50:00,2,20856256,201561
OK,35,68,856,35,2014-08-02T06:55:00,4,20856705,201561
OK,38,62,856,38,2014-08-02T07:00:00,1,20857154,201561
OK,38,62,856,38,2014-08-02T07:05:00,0,20857603,201561
OK,40,59,856,40,2014-08-02T07:10:00,2,20858052,201561
OK,45,53,856,45,2014-08-02T07:15:00,4,20858501,201561
OK,45,53,856,45,2014-08-02T07:20:00,4,20858950,201561
OK,42,56,856,42,2014-08-02T07:25:00,3,20859399,201561
OK,42,56,856,42,2014-08-02T07:30:00,4,20859848,201561
OK,44,54,856,44,2014-08-02T07:35:00,5,20860297,201561
OK,53,45,856,53,2014-08-02T07:40:00,7,20860746,201561
OK,40,59,856,40,2014-08-02T07:45:00,8,20861195,201561
OK,40,59,856,40,2014-08-02T07:50:00,12,20861644,201561
OK,45,53,856,45,2014-08-02T07:55:00,11,20862093,201561
OK,60,39,856,60,2014-08-02T08:00:00,7,20862542,201561
OK,39,61,856,39,2014-08-02T08:05:00,3,20862991,201561
OK,44,54,856,44,2014-08-02T08:10:00,7,20863440,201561
OK,47,50,856,47,2014-08-02T08:15:00,9,20863889,201561
OK,49,48,856,49,2014-08-02T08:20:00,7,20864338,201561
OK,50,47,856,50,2014-08-02T08:25:00,4,20864787,201561
OK,56,42,856,56,2014-08-02T08:30:00,3,20865236,201561
OK,45,53,856,45,2014-08-02T08:35:00,12,20865685,201561
OK,46,51,856,46,2014-08-02T08:40:00,10,20866134,201561
OK,54,44,856,54,2014-08-02T08:45:00,10,20866583,201561
OK,44,54,856,44,2014-08-02T08:50:00,8,20867032,201561
OK,43,55,856,43,2014-08-02T08:55:00,10,20867481,201561
OK,42,56,856,42,2014-08-02T09:00:00,13,20867930,201561
OK,42,56,856,42,2014-08-02T09:05:00,7,20868379,201561
OK,44,54,856,44,2014-08-02T09:10:00,5,20868828,201561
OK,45,53,856,45,2014-08-02T09:15:00,7,20869277,201561
OK,58,41,856,58,2014-08-02T09:20:00,4,20869726,201561
OK,37,64,856,37,2014-08-02T09:25:00,3,20870175,201561
OK,42,56,856,42,2014-08-02T09:30:00,8,20870624,201561
OK,44,54,856,44,2014-08-02T09:35:00,7,20871073,201561
OK,48,49,856,48,2014-08-02T09:40:00,3,20871522,201561
OK,48,49,856,48,2014-08-02T09:45:00,6,20871971,201561
OK,45,53,856,45,2014-08-02T09:50:00,8,20872420,201561
OK,47,50,856,47,2014-08-02T09:55:00,6,20872869,201561
OK,49,48,856,49,2014-08-02T10:00:00,4,20873318,201561
OK,40,59,856,40,2014-08-02T10:05:00,6,20873767,201561
OK,41,58,856,41,2014-08-02T10:10:00,9,20874216,201561
OK,46,51,856,46,2014-08-02T10:15:00,7,20874665,201561
OK,47,50,856,47,2014-08-02T10:20:00,8,20875114,201561
OK,44,54,856,44,2014-08-02T10:25:00,5,20875563,201561
OK,53,45,856,53,2014-08-02T10:30:00,3,20876012,201561
OK,35,68,856,35,2014-08-02T10:35:00,1,20876461,201561
OK,42,56,856,42,2014-08-02T10:40:00,3,20876910,201561
OK,43,55,856,43,2014-08-02T10:45:00,6,20877359,201561
OK,46,51,856,46,2014-08-02T10:50:00,5,20877808,201561
OK,48,49,856,48,2014-08-02T10:55:00,7,20878257,201561
OK,42,56,856,42,2014-08-02T11:00:00,9,20878706,201561
OK,41,58,856,41,2014-08-02T11:05:00,7,20879155,201561
OK,44,54,856,44,2014-08-02T11:10:00,4,20879604,201561
OK,59,40,856,59,2014-08-02T11:15:00,5,20880053,201561
OK,49,48,856,49,2014-08-02T11:20:00,7,20880502,201561
OK,44,54,856,44,2014-08-02T11:25:00,7,20880951,201561
OK,44,54,856,44,2014-08-02T11:30:00,6,20881400,201561
OK,44,54,856,44,2014-08-02T11:35:00,8,20881849,201561
OK,48,49,856,48,2014-08-02T11:40:00,7,20882298,201561
OK,44,54,856,44,2014-08-02T11:45:00,3,20882747,201561
OK,44,54,856,44,2014-08-02T11:50:00,7,20883196,201561
OK,55,43,856,55,2014-08-02T11:55:00,7,20883645,201561
OK,44,54,856,44,2014-08-02T12:00:00,7,20884094,201561
OK,41,58,856,41,2014-08-02T12:05:00,8,20884543,201561
OK,52,45,856,52,2014-08-02T12:10:00,8,20884992,201561
OK,46,51,856,46,2014-08-02T12:15:00,9,20885441,201561
OK,46,51,856,46,2014-08-02T12:20:00,6,20885890,201561
OK,43,55,856,43,2014-08-02T12:25:00,5,20886339,201561
OK,43,55,856,43,2014-08-02T12:30:00,6,20886788,201561
OK,43,55,856,43,2014-08-02T12:35:00,7,20887237,201561
OK,44,54,856,44,2014-08-02T12:40:00,5,20887686,201561
OK,39,61,856,39,2014-08-02T12:45:00,5,20888135,201561
OK,39,61,856,39,2014-08-02T12:50:00,5,20888584,201561
OK,42,56,856,42,2014-08-02T12:55:00,7,20889033,201561
OK,42,56,856,42,2014-08-02T13:00:00,13,20889482,201561
OK,41,58,856,41,2014-08-02T13:05:00,8,20889931,201561
OK,38,62,856,38,2014-08-02T13:10:00,2,20890380,201561
OK,35,68,856,35,2014-08-02T13:15:00,3,20890829,201561
OK,43,55,856,43,2014-08-02T13:20:00,7,20891278,201561
OK,45,53,856,45,2014-08-02T13:25:00,2,20891727,201561
OK,44,54,856,44,2014-08-02T13:30:00,3,20892176,201561
OK,44,54,856,44,2014-08-02T13:35:00,5,20892625,201561
OK,43,55,856,43,2014-08-02T13:40:00,7,20893074,201561
OK,43,55,856,43,2014-08-02T13:45:00,11,20893523,201561
OK,42,56,856,42,2014-08-02T13:50:00,8,20893972,201561
OK,43,55,856,43,2014-08-02T13:55:00,5,20894421,201561
OK,49,48,856,49,2014-08-02T14:00:00,2,20894870,201561
OK,51,46,856,51,2014-08-02T14:05:00,3,20895319,201561
OK,53,45,856,53,2014-08-02T14:10:00,3,20895768,201561
OK,52,45,856,52,2014-08-02T14:15:00,6,20896217,201561
OK,49,48,856,49,2014-08-02T14:20:00,8,20896666,201561
OK,42,56,856,42,2014-08-02T14:25:00,5,20897115,201561
OK,40,59,856,40,2014-08-02T14:30:00,3,20897564,201561
OK,38,62,856,38,2014-08-02T14:35:00,4,20898013,201561
OK,33,72,856,33,2014-08-02T14:40:00,3,20898462,201561
OK,42,56,856,42,2014-08-02T14:45:00,6,20898911,201561
OK,50,47,856,50,2014-08-02T14:50:00,8,20899360,201561
OK,44,54,856,44,2014-08-02T14:55:00,5,20899809,201561
OK,51,46,856,51,2014-08-02T15:00:00,5,20900258,201561
OK,51,46,856,51,2014-08-02T15:05:00,7,20900707,201561
OK,49,48,856,49,2014-08-02T15:10:00,6,20901156,201561
OK,61,39,856,61,2014-08-02T15:15:00,3,20901605,201561
OK,61,39,856,61,2014-08-02T15:20:00,8,20902054,201561
OK,56,42,856,56,2014-08-02T15:25:00,6,20902503,201561
OK,45,53,856,45,2014-08-02T15:30:00,7,20902952,201561
OK,60,39,856,60,2014-08-02T15:35:00,7,20903401,201561
OK,61,39,856,61,2014-08-02T15:40:00,6,20903850,201561
OK,52,45,856,52,2014-08-02T15:45:00,6,20904299,201561
OK,41,58,856,41,2014-08-02T15:50:00,5,20904748,201561
OK,40,59,856,40,2014-08-02T15:55:00,5,20905197,201561
OK,43,55,856,43,2014-08-02T16:00:00,5,20905646,201561
OK,41,58,856,41,2014-08-02T16:05:00,6,20906095,201561
OK,40,59,856,40,2014-08-02T16:10:00,4,20906544,201561
OK,43,55,856,43,2014-08-02T16:15:00,3,20906993,201561
OK,43,55,856,43,2014-08-02T16:20:00,3,20907442,201561
OK,42,56,856,42,2014-08-02T16:25:00,4,20907891,201561
OK,44,54,856,44,2014-08-02T16:30:00,3,20908340,201561
OK,36,66,856,36,2014-08-02T16:35:00,3,20908789,201561
OK,36,66,856,36,2014-08-02T16:40:00,5,20909238,201561
OK,37,64,856,37,2014-08-02T16:45:00,6,20909687,201561
OK,43,55,856,43,2014-08-02T16:50:00,3,20910136,201561
OK,40,59,856,40,2014-08-02T16:55:00,4,20910585,201561
OK,37,64,856,37,2014-08-02T17:00:00,4,20911034,201561
OK,39,61,856,39,2014-08-02T17:05:00,3,20911483,201561
OK,41,58,856,41,2014-08-02T17:10:00,3,20911932,201561
OK,59,40,856,59,2014-08-02T17:15:00,2,20912381,201561
OK,47,50,856,47,2014-08-02T17:20:00,6,20912830,201561
OK,39,61,856,39,2014-08-02T17:25:00,7,20913279,201561
OK,39,61,856,39,2014-08-02T17:30:00,3,20913728,201561
OK,37,64,856,37,2014-08-02T17:35:00,2,20914177,201561
OK,41,58,856,41,2014-08-02T17:40:00,4,20914626,201561
OK,39,61,856,39,2014-08-02T17:45:00,4,20915075,201561
OK,43,55,856,43,2014-08-02T17:50:00,8,20915524,201561
OK,44,54,856,44,2014-08-02T17:55:00,7,20915973,201561
OK,51,46,856,51,2014-08-02T18:00:00,4,20916422,201561
OK,49,48,856,49,2014-08-02T18:05:00,5,20916871,201561
OK,45,53,856,45,2014-08-02T18:10:00,5,20917320,201561
OK,39,61,856,39,2014-08-02T18:15:00,1,20917769,201561
OK,46,51,856,46,2014-08-02T18:20:00,3,20918218,201561
OK,47,50,856,47,2014-08-02T18:25:00,2,20918667,201561
OK,48,49,856,48,2014-08-02T18:30:00,4,20919116,201561
OK,48,49,856,48,2014-08-02T18:35:00,2,20919565,201561
OK,55,43,856,55,2014-08-02T18:40:00,3,20920014,201561
OK,46,51,856,46,2014-08-02T18:45:00,5,20920463,201561
OK,42,56,856,42,2014-08-02T18:50:00,3,20920912,201561
OK,38,62,856,38,2014-08-02T18:55:00,1,20921361,201561
OK,43,55,856,43,2014-08-02T19:00:00,1,20921810,201561
OK,43,55,856,43,2014-08-02T19:05:00,0,20922259,201561
OK,43,55,856,43,2014-08-02T19:10:00,0,20922708,201561
OK,43,55,856,43,2014-08-02T19:15:00,0,20923157,201561
OK,43,55,856,43,2014-08-02T19:20:00,2,20923606,201561
OK,46,51,856,46,2014-08-02T19:25:00,2,20924055,201561
OK,45,53,856,45,2014-08-02T19:30:00,2,20924504,201561
OK,41,58,856,41,2014-08-02T19:35:00,4,20924953,201561
OK,42,56,856,42,2014-08-02T19:40:00,5,20925402,201561
OK,43,55,856,43,2014-08-02T19:45:00,4,20925851,201561
OK,45,53,856,45,2014-08-02T19:50:00,1,20926300,201561
OK,39,61,856,39,2014-08-02T19:55:00,2,20926749,201561
OK,39,61,856,39,2014-08-02T20:00:00,2,20927198,201561
OK,38,62,856,38,2014-08-02T20:05:00,1,20927647,201561
OK,38,62,856,38,2014-08-02T20:10:00,1,20928096,201561
OK,41,58,856,41,2014-08-02T20:15:00,1,20928545,201561
OK,44,54,856,44,2014-08-02T20:20:00,7,20928994,201561
OK,43,55,856,43,2014-08-02T20:25:00,9,20929443,201561
OK,54,44,856,54,2014-08-02T20:30:00,8,20929892,201561
OK,55,43,856,55,2014-08-02T20:35:00,7,20930341,201561
OK,44,54,856,44,2014-08-02T20:40:00,4,20930790,201561
OK,45,53,856,45,2014-08-02T20:45:00,1,20931239,201561
OK,36,66,856,36,2014-08-02T20:50:00,1,20931688,201561
OK,36,66,856,36,2014-08-02T20:55:00,0,20932137,201561
OK,36,66,856,36,2014-08-02T21:00:00,0,20932586,201561
OK,41,58,856,41,2014-08-02T21:05:00,1,20933035,201561
OK,54,44,856,54,2014-08-02T21:10:00,1,20933484,201561
OK,54,44,856,54,2014-08-02T21:15:00,1,20933933,201561
OK,54,44,856,54,2014-08-02T21:20:00,0,20934382,201561
OK,43,55,856,43,2014-08-02T21:25:00,1,20934831,201561
OK,50,47,856,50,2014-08-02T21:30:00,2,20935280,201561
OK,41,58,856,41,2014-08-02T21:35:00,3,20935729,201561
OK,39,61,856,39,2014-08-02T21:40:00,1,20936178,201561
OK,41,58,856,41,2014-08-02T21:45:00,3,20936627,201561
OK,41,58,856,41,2014-08-02T21:50:00,0,20937076,201561
OK,41,58,856,41,2014-08-02T21:55:00,0,20937525,201561
OK,41,58,856,41,2014-08-02T22:00:00,0,20937974,201561
OK,41,58,856,41,2014-08-02T22:05:00,0,20938423,201561
OK,64,37,856,64,2014-08-02T22:10:00,2,20938872,201561
OK,37,64,856,37,2014-08-02T22:15:00,3,20939321,201561
OK,34,70,856,34,2014-08-02T22:20:00,1,20939770,201561
OK,34,70,856,34,2014-08-02T22:25:00,0,20940219,201561
OK,47,50,856,47,2014-08-02T22:30:00,1,20940668,201561
OK,43,55,856,43,2014-08-02T22:35:00,2,20941117,201561
OK,39,61,856,39,2014-08-02T22:40:00,1,20941566,201561
OK,39,61,856,39,2014-08-02T22:45:00,0,20942015,201561
OK,37,64,856,37,2014-08-02T22:50:00,1,20942464,201561
OK,45,53,856,45,2014-08-02T22:55:00,1,20942913,201561
OK,31,77,856,31,2014-08-02T23:00:00,1,20943362,201561
OK,45,53,856,45,2014-08-02T23:10:00,1,20943811,201561
OK,40,59,856,40,2014-08-02T23:15:00,2,20944260,201561
OK,39,61,856,39,2014-08-02T23:20:00,3,20944709,201561
OK,37,64,856,37,2014-08-02T23:25:00,2,20945158,201561
OK,46,51,856,46,2014-08-02T23:30:00,1,20945607,201561
OK,31,77,856,31,2014-08-02T23:35:00,1,20946056,201561
OK,37,64,856,37,2014-08-02T23:40:00,2,20946505,201561
OK,43,55,856,43,2014-08-02T23:45:00,1,20946954,201561
OK,43,55,856,43,2014-08-02T23:50:00,0,20947403,201561
OK,34,70,856,34,2014-08-02T23:55:00,2,20947852,201561
OK,35,68,856,35,2014-08-03T00:00:00,1,20948301,201561
OK,46,51,856,46,2014-08-03T00:05:00,0,20948750,201561
OK,46,51,856,46,2014-08-03T00:10:00,0,20949198,201561
OK,46,51,856,46,2014-08-03T00:15:00,0,20949647,201561
OK,46,51,856,46,2014-08-03T00:20:00,0,20950096,201561
OK,46,51,856,46,2014-08-03T00:25:00,0,20950545,201561
OK,46,51,856,46,2014-08-03T00:30:00,0,20950994,201561
OK,29,82,856,29,2014-08-03T00:35:00,2,20951443,201561
OK,31,77,856,31,2014-08-03T00:40:00,1,20951892,201561
OK,31,77,856,31,2014-08-03T00:45:00,0,20952341,201561
OK,31,77,856,31,2014-08-03T00:50:00,0,20952790,201561
OK,72,33,856,72,2014-08-03T00:55:00,1,20953239,201561
OK,72,33,856,72,2014-08-03T01:00:00,0,20953688,201561
OK,72,33,856,72,2014-08-03T01:05:00,0,20954137,201561
OK,47,50,856,47,2014-08-03T01:10:00,2,20954586,201561
OK,57,41,856,57,2014-08-03T01:15:00,1,20955035,201561
OK,27,88,856,27,2014-08-03T01:20:00,1,20955484,201561
OK,37,64,856,37,2014-08-03T01:25:00,1,20955933,201561
OK,37,64,856,37,2014-08-03T01:30:00,0,20956382,201561
OK,37,64,856,37,2014-08-03T01:35:00,0,20956831,201561
OK,37,64,856,37,2014-08-03T01:40:00,0,20957280,201561
OK,31,77,856,31,2014-08-03T01:45:00,1,20957729,201561
OK,36,66,856,36,2014-08-03T01:50:00,2,20958178,201561